Back to catalog

FREGAT DEB

LostUNKNOWN
NORAD 45881·DEBRIS·🇷🇺 Russia

Launched Jul 18, 2011 from Baikonur Cosmodrome

Loading…

Next Passes (next 24 hours)

TLE

StaleSource: Space-Track

Epoch: Sep 18, 2020, 02:20 UTC

1 45881U 11037DA  20262.09742081 -.00024883  00000-0 -23871+0 0  9998
2 45881  51.6424 192.3726 1792747 162.9176 204.0933 10.05443616  7142

Track FREGAT DEB in real time with AllMySat

Download on the App Store